Find ALSAT-3B

NORAD ID: 67646 Int'l Des: 2026-021 Owner: ASAL Country: DZ operational
LEOCIRCULARRETROGRADESSO

現在のビュー

3D地球を読み込み中...

ALSAT-3Bについて

説明を読み込み中...

次回通過

Passes for default location (London). Set your location on the main map for personalized predictions.

高度履歴

Loading altitude history...

軌道要素

1 67646U 26021A 26146.21799351 .00006500 00000-0 27765-3 0 9997
2 67646 97.4592 220.1202 0014003 238.4459 121.5411 15.23131105 17521
Epoch: May 26, 2026 • Age: 12 hours

現在のステータス

高度 514.3 km
速度 7.61 km/s
衛星直下点 -73.82°S, 131.14°W
打ち上げ日 Jan 31, 2026
運用期間 0.3 years
タイプ other

技術仕様

分類 Payload
質量 500.00 kg
乾燥質量 500.00 kg
総質量 500.00 kg
長さ 2.00 m
直径 1.00 m
スパン 4.00 m
形状 Box + 2 Pan
製造者 CAST
バスタイプ CAST-2000
フェーズステータス In Orbit
所有者/国 ASAL/DZ

Most Searched